Location: Stara Lesna
(49.1528°N, 20.2911°E)
Time: 11:23:10
(UTC+02:00)

Cosmos 1707 Rocket - Pass Details

Date: 21 September 2019
Orbit: 604 x 633 km, 82.5° (Epoch: 15 October)

Event Time Altitude Azimuth Distance (km) Brightness Sun altitude
Exits shadow 04:37:23 34° 269° (W) 1,034 4.2 -17.6°
Maximum altitude 04:37:59 35° 287° (WNW) 1,002 4.2 -17.5°
Drops below altitude 10° 04:42:03 10° 354° (N) 1,991 6.4 -16.9°
Sets 04:44:27 0° 4° (N) 2,896 7.3 -16.6°
